Time,TemperatureF,DewpointF,PressureIn,WindDirection,WindDirectionDegrees,WindSpeedMPH,WindSpeedGustMPH,Humidity,HourlyPrecipIn,Conditions,Clouds,dailyrainin,SoftwareType,DateUTC
2013-03-18 00:01:00,-4.7,-11.4,29.99,SSW,202,1.1,-999.0,72,-99.99,,,0.00,Acu-Link.com,2013-03-18 08:01:00,
2013-03-18 00:31:00,-2.2,-9.5,29.99,SSW,202,2.7,-999.0,70,-99.99,,,0.00,Acu-Link.com,2013-03-18 08:31:00,
2013-03-18 01:17:00,-4.2,-10.9,29.97,SSW,202,2.7,-999.0,72,-99.99,,,0.00,Acu-Link.com,2013-03-18 09:17:00,
2013-03-18 01:32:00,-5.1,-11.8,29.97,SSW,202,2.2,-999.0,72,-99.99,,,0.00,Acu-Link.com,2013-03-18 09:32:00,
2013-03-18 01:48:00,-2.9,-8.6,29.97,SSW,202,2.2,-999.0,76,-99.99,,,0.00,Acu-Link.com,2013-03-18 09:48:00,
2013-03-18 02:03:00,-5.8,-11.9,29.97,SSW,202,1.1,-999.0,74,-99.99,,,0.00,Acu-Link.com,2013-03-18 10:03:00,
2013-03-18 02:18:00,-6.2,-11.8,29.97,SSW,202,1.7,-999.0,76,-99.99,,,0.00,Acu-Link.com,2013-03-18 10:18:00,
2013-03-18 02:33:00,-3.3,-8.9,29.97,SSW,202,2.7,-999.0,76,-99.99,,,0.00,Acu-Link.com,2013-03-18 10:33:00,
2013-03-18 02:48:00,-3.1,-9.8,29.96,SSE,157,4.2,-999.0,72,-99.99,,,0.00,Acu-Link.com,2013-03-18 10:48:00,
2013-03-18 03:04:00,-2.7,-9.5,29.96,SE,135,2.7,-999.0,72,-99.99,,,0.00,Acu-Link.com,2013-03-18 11:04:00,
2013-03-18 03:36:00,-2.4,-9.2,29.95,South,180,2.7,-999.0,72,-99.99,,,0.00,Acu-Link.com,2013-03-18 11:36:00,
2013-03-18 03:51:00,-3.3,-10.0,29.95,South,180,1.7,-999.0,72,-99.99,,,0.00,Acu-Link.com,2013-03-18 11:51:00,
2013-03-18 04:21:00,-5.6,-11.7,29.94,North,0,2.2,-999.0,74,-99.99,,,0.00,Acu-Link.com,2013-03-18 12:21:00,
2013-03-18 04:37:00,-7.1,-13.4,29.94,North,0,1.7,-999.0,73,-99.99,,,0.00,Acu-Link.com,2013-03-18 12:37:00,
2013-03-18 04:52:00,-6.2,-11.8,29.93,North,0,2.2,-999.0,76,-99.99,,,0.00,Acu-Link.com,2013-03-18 12:52:00,
2013-03-18 05:07:00,-7.1,-12.9,29.94,North,0,0.0,-999.0,75,-99.99,,,0.00,Acu-Link.com,2013-03-18 13:07:00,
2013-03-18 05:22:00,-5.3,-11.1,29.93,North,0,1.7,-999.0,75,-99.99,,,0.00,Acu-Link.com,2013-03-18 13:22:00,
2013-03-18 05:38:00,-6.5,-12.9,29.93,North,0,0.0,-999.0,73,-99.99,,,0.00,Acu-Link.com,2013-03-18 13:38:00,
2013-03-18 05:53:00,-6.3,-12.4,29.92,North,0,3.2,-999.0,74,-99.99,,,0.00,Acu-Link.com,2013-03-18 13:53:00,
2013-03-18 06:08:00,-6.9,-12.7,29.93,North,0,2.2,-999.0,75,-99.99,,,0.00,Acu-Link.com,2013-03-18 14:08:00,
2013-03-18 06:23:00,-6.7,-12.2,29.92,North,0,0.0,-999.0,76,-99.99,,,0.00,Acu-Link.com,2013-03-18 14:23:00,
2013-03-18 06:38:00,-7.2,-13.0,29.92,North,0,1.7,-999.0,75,-99.99,,,0.00,Acu-Link.com,2013-03-18 14:38:00,
2013-03-18 06:54:00,-6.2,-11.5,29.91,North,0,3.2,-999.0,77,-99.99,,,0.00,Acu-Link.com,2013-03-18 14:54:00,
2013-03-18 07:09:00,-7.4,-13.7,29.91,North,0,3.7,-999.0,73,-99.99,,,0.00,Acu-Link.com,2013-03-18 15:09:00,
2013-03-18 07:24:00,-7.8,-13.6,29.91,North,0,2.7,-999.0,75,-99.99,,,0.00,Acu-Link.com,2013-03-18 15:24:00,
2013-03-18 07:39:00,-8.3,-13.3,29.91,North,0,2.7,-999.0,78,-99.99,,,0.00,Acu-Link.com,2013-03-18 15:39:00,
2013-03-18 07:54:00,-7.2,-12.5,29.91,North,0,1.7,-999.0,77,-99.99,,,0.00,Acu-Link.com,2013-03-18 15:54:00,
2013-03-18 08:10:00,-8.7,-14.4,29.90,North,0,1.7,-999.0,75,-99.99,,,0.00,Acu-Link.com,2013-03-18 16:10:00,
2013-03-18 08:25:00,-8.5,-14.0,29.90,North,0,0.0,-999.0,76,-99.99,,,0.00,Acu-Link.com,2013-03-18 16:25:00,
2013-03-18 08:40:00,-8.0,-13.2,29.89,North,0,0.0,-999.0,77,-99.99,,,0.00,Acu-Link.com,2013-03-18 16:40:00,
2013-03-18 08:55:00,-8.5,-14.5,29.89,North,0,0.0,-999.0,74,-99.99,,,0.00,Acu-Link.com,2013-03-18 16:55:00,
2013-03-18 09:10:00,-4.7,-11.4,29.89,North,0,2.7,-999.0,72,-99.99,,,0.00,Acu-Link.com,2013-03-18 17:10:00,
2013-03-18 09:27:00,-2.2,-10.1,29.87,North,0,0.0,-999.0,68,-99.99,,,0.00,Acu-Link.com,2013-03-18 17:27:00,
2013-03-18 10:21:00,1.4,-7.3,29.86,North,0,2.7,-999.0,66,-99.99,,,0.00,Acu-Link.com,2013-03-18 18:21:00,
2013-03-18 10:37:00,3.0,-6.4,29.85,North,0,0.0,-999.0,64,-99.99,,,0.00,Acu-Link.com,2013-03-18 18:37:00,
2013-03-18 10:53:00,6.6,-4.6,29.84,North,0,0.0,-999.0,59,-99.99,,,0.00,Acu-Link.com,2013-03-18 18:53:00,
2013-03-18 11:08:00,5.2,-6.0,29.84,North,0,2.7,-999.0,59,-99.99,,,0.00,Acu-Link.com,2013-03-18 19:08:00,
2013-03-18 11:23:00,7.3,-4.7,29.82,West,270,1.7,-999.0,57,-99.99,,,0.00,Acu-Link.com,2013-03-18 19:23:00,
2013-03-18 12:11:00,7.3,-4.7,29.81,WSW,247,5.3,-999.0,57,-99.99,,,0.00,Acu-Link.com,2013-03-18 20:11:00,
2013-03-18 12:26:00,10.4,-3.3,29.82,WSW,247,2.2,-999.0,53,-99.99,,,0.00,Acu-Link.com,2013-03-18 20:26:00,
2013-03-18 12:41:00,10.4,-4.1,29.81,WSW,247,2.2,-999.0,51,-99.99,,,0.00,Acu-Link.com,2013-03-18 20:41:00,
2013-03-18 12:56:00,12.2,-2.8,29.82,WSW,247,5.8,-999.0,50,-99.99,,,0.00,Acu-Link.com,2013-03-18 20:56:00,
2013-03-18 13:11:00,11.7,-3.3,29.83,SW,225,4.2,-999.0,50,-99.99,,,0.00,Acu-Link.com,2013-03-18 21:11:00,
2013-03-18 13:28:00,13.6,-2.4,29.82,WSW,247,1.7,-999.0,48,-99.99,,,0.00,Acu-Link.com,2013-03-18 21:28:00,
2013-03-18 13:43:00,15.8,-1.3,29.82,SW,225,2.7,-999.0,46,-99.99,,,0.00,Acu-Link.com,2013-03-18 21:43:00,
2013-03-18 14:05:00,15.1,-2.4,29.83,SW,225,7.3,-999.0,45,-99.99,,,0.00,Acu-Link.com,2013-03-18 22:05:00,
2013-03-18 14:25:00,14.2,-2.7,29.82,WSW,247,5.3,-999.0,46,-99.99,,,0.00,Acu-Link.com,2013-03-18 22:25:00,
2013-03-18 14:41:00,15.8,-2.2,29.82,WSW,247,6.8,-999.0,44,-99.99,,,0.00,Acu-Link.com,2013-03-18 22:41:00,
2013-03-18 14:57:00,16.5,-2.0,29.82,WSW,247,7.8,-999.0,43,-99.99,,,0.00,Acu-Link.com,2013-03-18 22:57:00,
2013-03-18 15:12:00,16.9,-2.7,29.82,West,270,6.3,-999.0,41,-99.99,,,0.00,Acu-Link.com,2013-03-18 23:12:00,
2013-03-18 15:28:00,17.1,-2.5,29.83,West,270,5.3,-999.0,41,-99.99,,,0.00,Acu-Link.com,2013-03-18 23:28:00,
2013-03-18 15:43:00,17.8,-1.9,29.82,SW,225,4.2,-999.0,41,-99.99,,,0.00,Acu-Link.com,2013-03-18 23:43:00,
2013-03-18 15:58:00,18.1,-2.1,29.82,SW,225,5.3,-999.0,40,-99.99,,,0.00,Acu-Link.com,2013-03-18 23:58:00,
2013-03-18 16:13:00,18.1,-2.1,29.82,SSW,202,5.3,-999.0,40,-99.99,,,0.00,Acu-Link.com,2013-03-19 00:13:00,
2013-03-18 16:30:00,17.4,-2.7,29.81,WSW,247,9.4,-999.0,40,-99.99,,,0.00,Acu-Link.com,2013-03-19 00:30:00,
2013-03-18 16:45:00,18.0,-2.2,29.81,West,270,5.8,-999.0,40,-99.99,,,0.00,Acu-Link.com,2013-03-19 00:45:00,
2013-03-18 17:01:00,16.9,-3.2,29.81,SW,225,2.7,-999.0,40,-99.99,,,0.00,Acu-Link.com,2013-03-19 01:01:00,
2013-03-18 17:16:00,17.6,-2.6,29.82,West,270,3.2,-999.0,40,-99.99,,,0.00,Acu-Link.com,2013-03-19 01:16:00,
2013-03-18 17:31:00,16.7,-3.4,29.82,WSW,247,2.7,-999.0,40,-99.99,,,0.00,Acu-Link.com,2013-03-19 01:31:00,
2013-03-18 17:47:00,19.0,-0.8,29.82,NNW,337,1.7,-999.0,41,-99.99,,,0.00,Acu-Link.com,2013-03-19 01:47:00,
2013-03-18 18:02:00,17.6,-2.6,29.81,WSW,247,5.3,-999.0,40,-99.99,,,0.00,Acu-Link.com,2013-03-19 02:02:00,
2013-03-18 18:18:00,19.2,-1.1,29.81,West,270,4.2,-999.0,40,-99.99,,,0.00,Acu-Link.com,2013-03-19 02:18:00,
2013-03-18 18:34:00,20.8,-0.8,29.82,West,270,0.0,-999.0,38,-99.99,,,0.00,Acu-Link.com,2013-03-19 02:34:00,
2013-03-18 18:49:00,20.1,-1.9,29.82,West,270,1.7,-999.0,37,-99.99,,,0.00,Acu-Link.com,2013-03-19 02:49:00,
2013-03-18 19:04:00,20.7,-1.4,29.82,West,270,2.2,-999.0,37,-99.99,,,0.00,Acu-Link.com,2013-03-19 03:04:00,
2013-03-18 19:20:00,18.5,-2.3,29.82,West,270,3.7,-999.0,39,-99.99,,,0.00,Acu-Link.com,2013-03-19 03:20:00,
2013-03-18 19:37:00,16.3,-2.2,29.84,WSW,247,4.2,-999.0,43,-99.99,,,0.00,Acu-Link.com,2013-03-19 03:37:00,
2013-03-18 19:52:00,14.5,-2.9,29.83,WSW,247,2.7,-999.0,45,-99.99,,,0.00,Acu-Link.com,2013-03-19 03:52:00,
2013-03-18 20:07:00,12.2,-2.0,29.84,SSE,157,2.7,-999.0,52,-99.99,,,0.00,Acu-Link.com,2013-03-19 04:07:00,
2013-03-18 20:23:00,9.5,-4.5,29.84,WSW,247,2.7,-999.0,52,-99.99,,,0.00,Acu-Link.com,2013-03-19 04:23:00,
2013-03-18 20:38:00,6.4,-5.2,29.84,SW,225,2.7,-999.0,58,-99.99,,,0.00,Acu-Link.com,2013-03-19 04:38:00,
2013-03-18 20:53:00,6.6,-5.7,29.84,SE,135,2.7,-999.0,56,-99.99,,,0.00,Acu-Link.com,2013-03-19 04:53:00,
2013-03-18 21:08:00,4.6,-6.9,29.84,SE,135,2.7,-999.0,58,-99.99,,,0.00,Acu-Link.com,2013-03-19 05:08:00,
2013-03-18 21:23:00,3.2,-7.5,29.84,SE,135,2.2,-999.0,60,-99.99,,,0.00,Acu-Link.com,2013-03-19 05:23:00,
2013-03-18 21:45:00,1.4,-8.2,29.84,SE,135,2.7,-999.0,63,-99.99,,,0.00,Acu-Link.com,2013-03-19 05:45:00,
2013-03-18 22:00:00,0.3,-8.6,29.84,SE,135,3.2,-999.0,65,-99.99,,,0.00,Acu-Link.com,2013-03-19 06:00:00,
2013-03-18 22:40:00,-1.7,-8.8,29.86,SE,135,3.2,-999.0,71,-99.99,,,0.00,Acu-Link.com,2013-03-19 06:40:00,
2013-03-18 23:38:00,-3.1,-10.4,29.86,SE,135,2.7,-999.0,70,-99.99,,,0.00,Acu-Link.com,2013-03-19 07:38:00,